Weather History for KNFL - July, 2014

Change the Weather History Date:

Tuesday, July 15, 2014

  Actual Average Record
Temperature  
Mean Temperature 88 °F -  
Max Temperature 105 °F 92 °F 105 °F (2014)
Min Temperature 73 °F 55 °F 46 °F (1983)
Cooling Degree Days 24    
Growing Degree Days 38 (Base 50)    
Moisture  
Dew Point 43 °F    
Average Humidity 24    
Maximum Humidity 38    
Minimum Humidity 9    
Precipitation  
Precipitation 0.00 in - - ()
Sea Level Pressure  
Sea Level Pressure 29.96 in    
Wind  
Wind Speed 9 mph (West)    
Max Wind Speed 23 mph    
Max Gust Speed 33 mph    
Visibility 10 miles    
Events      
Averages and records for this station are not official NWS values.
T = Trace of Precipitation, MM = Missing Value Source: NWS Daily Summary

Daily Weather History Graph

Daily Weather History Graph

Search for Another Location

Airport or City:

Trip Planner

Search our weather history database for the weather conditions in past years. The results will help you decide how hot, cold, wet, or windy it might be!

Date:

Astronomy

Jul. 15, 2014 Rise Set
Actual Time 5:40 AM PDT 8:20 PM PDT
Civil Twilight 5:08 AM PDT 8:52 PM PDT
Nautical Twilight 4:29 AM PDT 9:31 PM PDT
Astronomical Twilight 3:45 AM PDT 10:15 PM PDT
Moon 10:33 PM PDT (7/15) 9:38 AM PDT (7/15)
Length of Visible Light 15h 43m
Length of Day
14h 40m
Waning Gibbous, 84% of the Moon is Illuminated
Jul 15
Waning Gibbous
Jul 18
Last Quarter
Jul 26
New
Aug 3
First Quarter
Aug 10
Full

Hourly Weather History & Observations

Time (PDT) Temp. Dew Point Humidity Pressure Visibility Wind Dir Wind Speed Gust Speed Precip Events Conditions
12:56 AM 87.1 °F 46.0 °F 24% 29.95 in 10.0 mi NW 12.7 mph - N/A   Clear
1:56 AM 84.0 °F 44.1 °F 25% 29.96 in 10.0 mi NW 11.5 mph - N/A   Clear
2:56 AM 77.0 °F 45.0 °F 32% 29.97 in 10.0 mi SW 6.9 mph - N/A   Clear
3:56 AM 75.9 °F 44.1 °F 32% 29.98 in 10.0 mi SW 6.9 mph - N/A   Clear
4:56 AM 73.0 °F 44.1 °F 35% 29.98 in 10.0 mi SW 6.9 mph - N/A   Clear
5:56 AM 73.9 °F 43.0 °F 33% 29.97 in 10.0 mi NW 5.8 mph - N/A   Clear
6:14 AM 75.9 °F 44.1 °F 32% 30.06 in 10.0 mi NW 5.8 mph - N/A   Overcast
6:56 AM 77.0 °F 45.0 °F 32% 29.98 in 10.0 mi Calm Calm - N/A   Overcast
7:56 AM 82.9 °F 39.9 °F 22% 30.00 in 10.0 mi Calm Calm - N/A   Overcast
8:56 AM 86.0 °F 41.0 °F 20% 30.01 in 10.0 mi Calm Calm - N/A   Mostly Cloudy
9:56 AM 89.1 °F 39.9 °F 18% 30.00 in 10.0 mi Variable 4.6 mph - N/A   Overcast
10:56 AM 91.9 °F 39.0 °F 16% 29.99 in 10.0 mi NW 4.6 mph - N/A   Overcast
11:56 AM 96.1 °F 39.9 °F 14% 29.97 in 10.0 mi Variable 5.8 mph - N/A   Overcast
12:56 PM 97.0 °F 37.9 °F 13% 29.95 in 10.0 mi Variable 6.9 mph - N/A   Overcast
1:56 PM 100.9 °F 36.0 °F 11% 29.92 in 10.0 mi NW 11.5 mph - N/A   Overcast
2:56 PM 104.0 °F 35.1 °F 9% 29.90 in 10.0 mi North 15.0 mph 20.7 mph N/A   Mostly Cloudy
3:56 PM 102.9 °F 33.1 °F 9% 29.89 in 10.0 mi NNE 10.4 mph 17.3 mph N/A   Mostly Cloudy
4:56 PM 100.9 °F 35.1 °F 10% 29.89 in 10.0 mi NNE 4.6 mph - N/A   Mostly Cloudy
5:56 PM 93.9 °F 46.0 °F 19% 29.88 in 10.0 mi WSW 23.0 mph 33.4 mph N/A   Overcast
6:56 PM 91.9 °F 45.0 °F 20% 29.90 in 10.0 mi South 19.6 mph 29.9 mph N/A   Mostly Cloudy
7:56 PM 88.0 °F 46.9 °F 24% 29.93 in 10.0 mi South 23.0 mph 27.6 mph N/A   Mostly Cloudy
8:56 PM 84.0 °F 52.0 °F 33% 29.95 in 10.0 mi South 20.7 mph 28.8 mph N/A   Mostly Cloudy
9:56 PM 82.0 °F 52.0 °F 35% 29.96 in 10.0 mi South 12.7 mph 23.0 mph N/A   Scattered Clouds
10:56 PM 79.0 °F 51.1 °F 38% 29.97 in 10.0 mi South 9.2 mph - N/A   Clear
11:56 PM 79.0 °F 51.1 °F 38% 29.96 in 10.0 mi South 9.2 mph - N/A   Clear